This demonstration page uses our WeatherBlox Daily Observations layout. Learn more.

Left ArrowRight Arrow

Hourly Observations for May 29, 2020

Temp ( °F °C ) Dew Point ( °F °C ) Humidity (%) Winds ( mph kmh ) Pressure ( in mb ) Visibility ( mi km ) Precip ( " mm )
12:15 am 00:15 Clear 56 13.2 47 8.5 73 73 NNE 6 9 30.2 1023 10 16.0934 0 0
12:35 am 00:35 Clear 54 12.4 46 8 75 75 NNE 7 11 30.21 1023 10 16.0934 0 0
12:55 am 00:55 Partly Cloudy 56 13.2 46 7.7 70 70 Calm 30.2 1023 10 16.0934 0 0
1:15 am 01:15 Mostly Cloudy 56 13.1 47 8.1 72 72 Calm 30.21 1023 10 16.0934 0 0
1:35 am 01:35 Cloudy 57 13.7 47 8.3 70 70 Calm 30.2 1023 10 16.0934 0 0
1:55 am 01:55 Cloudy 57 13.8 47 8.2 69 69 Calm 30.19 1022 10 16.0934 0 0
2:15 am 02:15 Cloudy 58 14.2 45 7.2 63 63 Calm 30.19 1022 10 16.0934 0 0
2:35 am 02:35 Cloudy 58 14.5 45 7 61 61 Calm 30.18 1022 10 16.0934 0 0
2:55 am 02:55 Cloudy 58 14.2 46 7.5 64 64 NNW 5 7 30.19 1022 10 16.0934 0 0
3:15 am 03:15 Cloudy 58 14.3 44 6.6 60 60 N 3 6 30.18 1022 10 16.0934 0 0
3:35 am 03:35 Cloudy 57 14.1 46 7.8 66 66 Calm 30.2 1023 10 16.0934 0 0
3:55 am 03:55 Cloudy 57 14.1 46 7.9 66 66 Calm 30.2 1023 10 16.0934 0 0
4:15 am 04:15 Cloudy 58 14.2 46 7.9 66 66 Calm 30.2 1023 10 16.0934 0 0
4:35 am 04:35 Cloudy 57 14.1 47 8.2 68 68 NW 3 6 30.2 1023 10 16.0934 0 0
4:55 am 04:55 Cloudy 57 14 47 8.6 70 70 Calm 30.2 1023 10 16.0934 0 0
5:15 am 05:15 Cloudy 58 14.2 47 8.1 67 67 Calm 30.2 1023 10 16.0934 0 0
5:35 am 05:35 Cloudy 58 14.2 47 8.1 67 67 NW 3 6 30.2 1023 10 16.0934 0 0
5:55 am 05:55 Cloudy 58 14.2 46 8 67 67 WNW 3 6 30.21 1023 10 16.0934 0 0
6:15 am 06:15 Cloudy 57 14 48 8.7 71 71 WNW 3 6 30.21 1023 10 16.0934 0 0
6:35 am 06:35 Cloudy 57 14 48 8.7 71 71 NW 3 6 30.21 1023 10 16.0934 0 0
6:55 am 06:55 Cloudy 57 14 49 9.4 74 74 Calm 30.21 1023 10 16.0934 0 0
7:15 am 07:15 Cloudy 57 14 51 10.5 80 80 Calm 30.22 1023 10 16.0934 0 0
7:35 am 07:35 Cloudy 58 14.6 49 9.6 72 72 Calm 30.21 1023 10 16.0934 0 0
7:55 am 07:55 Cloudy 59 15.1 49 9.2 68 68 Calm 30.22 1023 10 16.0934 0 0
8:15 am 08:15 Mostly Cloudy 60 15.8 49 9.2 65 65 Calm 30.22 1023 10 16.0934 0 0
8:35 am 08:35 Mostly Cloudy 63 17 48 8.9 59 59 Calm 30.21 1023 10 16.0934 0 0
8:55 am 08:55 Mostly Cloudy 65 18.4 45 7.1 48 48 Calm 30.2 1023 10 16.0934 0 0
9:15 am 09:15 Partly Cloudy 65 18.6 45 7 47 47 Calm 30.2 1023 10 16.0934 0 0
9:35 am 09:35 Partly Cloudy 67 19.6 44 6.8 44 44 Calm 30.18 1022 10 16.0934 0 0
9:55 am 09:55 Mostly Cloudy 68 20.2 44 6.4 41 41 Calm 30.18 1022 10 16.0934 0 0
10:15 am 10:15 Mostly Cloudy 69 20.8 42 5.6 37 37 Calm 30.17 1022 10 16.0934 0 0
10:35 am 10:35 Partly Cloudy 70 21.2 43 6 37 37 Calm 30.17 1022 10 16.0934 0 0
10:55 am 10:55 Sunny 71 21.4 42 5.4 35 35 Calm 30.16 1021 10 16.0934 0 0
11:15 am 11:15 Partly Cloudy 71 21.6 42 5.5 35 35 WNW 3 6 30.15 1021 10 16.0934 0 0
11:35 am 11:35 Partly Cloudy 72 22 42 5.7 35 35 ESE 5 7 30.15 1021 10 16.0934 0 0
11:55 am 11:55 Partly Cloudy 72 22.1 42 5.8 35 35 Calm 30.14 1021 10 16.0934 0 0
12:15 pm 12:15 Partly Cloudy 73 22.7 43 6 34 34 Calm 30.13 1020 10 16.0934 0 0
12:35 pm 12:35 Partly Cloudy 73 23 43 5.9 33 33 Calm 30.12 1020 10 16.0934 0 0
12:55 pm 12:55 Partly Cloudy 73 23 43 6.1 34 34 NE 3 6 30.12 1020 10 16.0934 0 0
1:15 pm 13:15 Sunny 75 23.7 43 6.2 32 32 SE 7 11 30.11 1020 10 16.0934 0 0
1:35 pm 13:35 Sunny 75 24.1 44 6.5 32 32 SSE 7 11 30.09 1019 10 16.0934 0 0
1:55 pm 13:55 Sunny 76 24.4 44 6.8 32 32 SW 5 7 30.08 1019 10 16.0934 0 0
2:15 pm 14:15 Sunny 77 24.9 45 7.4 33 33 SSE 9 15 30.08 1019 10 16.0934 0 0
2:35 pm 14:35 Sunny 77 24.8 45 7.1 32 32 SE 12 19 30.08 1019 10 16.0934 0 0
2:55 pm 14:55 Sunny 77 25.1 47 8.3 34 34 SE 5 7 30.07 1018 10 16.0934 0 0
3:15 pm 15:15 Sunny 78 25.4 48 8.7 35 35 S 8 13 30.06 1018 10 16.0934 0 0
3:35 pm 15:35 Sunny 77 25.2 48 8.8 35 35 S 5 7 30.06 1018 10 16.0934 0 0
3:55 pm 15:55 Sunny 77 25.2 49 9.2 36 36 SSE 3 6 30.05 1018 10 16.0934 0 0
4:15 pm 16:15 Sunny 78 25.8 49 9.3 35 35 SSW 5 7 30.04 1017 10 16.0934 0 0
4:35 pm 16:35 Sunny 78 25.6 48 8.8 35 35 S 8 13 30.04 1017 10 16.0934 0 0
4:55 pm 16:55 Sunny 78 25.6 48 8.9 35 35 SSE 9 15 30.04 1017 10 16.0934 0 0
5:15 pm 17:15 Sunny 78 25.7 48 9 35 35 Calm 30.04 1017 10 16.0934 0 0
5:35 pm 17:35 Sunny 78 25.8 48 8.8 34 34 S 5 7 30.03 1017 10 16.0934 0 0
5:55 pm 17:55 Sunny 78 25.8 48 9 35 35 SSE 7 11 30.03 1017 10 16.0934 0 0
6:15 pm 18:15 Sunny 78 25.7 48 9 35 35 SSE 6 9 30.03 1017 10 16.0934 0 0
6:35 pm 18:35 Sunny 78 25.6 49 9.4 36 36 SSE 5 7 30.03 1017 10 16.0934 0 0
6:55 pm 18:55 Sunny 78 25.5 49 9.2 36 36 SSE 9 15 30.03 1017 10 16.0934 0 0
7:15 pm 19:15 Sunny 77 25.2 48 9.1 36 36 SSE 8 13 30.03 1017 10 16.0934 0 0
7:35 pm 19:35 Sunny 77 25 48 9 36 36 SSE 7 11 30.03 1017 10 16.0934 0 0
7:55 pm 19:55 Sunny 76 24.5 48 9.1 38 38 SSE 9 15 30.04 1017 10 16.0934 0 0
8:15 pm 20:15 Sunny 75 24.1 49 9.2 39 39 SSE 8 13 30.04 1017 10 16.0934 0 0
8:35 pm 20:35 Sunny 74 23.2 49 9.7 42 42 SE 5 7 30.05 1018 10 16.0934 0 0
8:55 pm 20:55 Sunny 72 22.2 50 10 46 46 SE 9 15 30.07 1018 10 16.0934 0 0
9:15 pm 21:15 Clear 70 21.3 50 10 49 49 SE 9 15 30.08 1018 10 16.0934 0 0
9:35 pm 21:35 Clear 67 19.7 51 10.6 56 56 SE 8 13 30.09 1019 10 16.0934 0 0
9:55 pm 21:55 Clear 66 18.9 51 10.3 58 58 SE 8 13 30.11 1019 10 16.0934 0 0
10:15 pm 22:15 Clear 65 18.6 50 10.1 58 58 ESE 9 15 30.13 1020 10 16.0934 0 0
10:35 pm 22:35 Clear 65 18.6 50 10 58 58 SE 9 15 30.13 1020 10 16.0934 0 0
10:55 pm 22:55 Clear 64 17.8 51 10.4 62 62 SE 7 11 30.14 1020 10 16.0934 0 0
11:15 pm 23:15 Clear 63 17.4 51 10.5 64 64 SE 7 11 30.14 1021 10 16.0934 0 0
11:35 pm 23:35 Clear 63 17.2 51 10.6 65 65 SE 7 11 30.14 1021 10 16.0934 0 0
11:55 pm 23:55 Clear 63 17.1 51 10.7 66 66 SE 8 13 30.14 1021 10 16.0934 0 0

Powered by AerisWeather